Regional Weather Roundup
Issued by NWS Cleveland, OH

Home | Current Version | Previous Version | Graphics & Text | Print | Product List | Glossary On
Versions: 1 2 3 4 5 6 7 8 9 10 11 12 13 14 15 16 17 18 19 20 21 22 23 24 25 26 27 28 29 30 31 32 33 34 35 36 37 38 39 40 41 42 43 44 45 46 47 48 49 50
000
ASUS41 KCLE 232200
RWRCLE
OHIO REGIONAL WEATHER ROUNDUP
NATIONAL WEATHER SERVICE WILMINGTON, OH
600 PM EDT FRI JUN 23 2017

NOTE: "FAIR" INDICATES FEW OR NO CLOUDS BELOW 12,000 FEET WITH NO
SIGNIFICANT WEATHER AND/OR OBSTRUCTIONS TO VISIBILITY.

OHZ001>008-015>018-024>027-034-035-043-044-232300-
   NORTHWEST OHIO

CITY           SKY/WX    TMP DP  RH WIND       PRES   REMARKS
DEFIANCE       CLOUDY    72  64  76 W8        29.68R
FINDLAY        CLOUDY    71  64  78 W15       29.67R
TOLEDO EXPRESS CLOUDY    72  69  90 W9        29.65R
TOLEDO EXEC    CLOUDY    73  70  90 SW14      29.65S
LIMA           CLOUDY    69  67  93 SW10      29.69S
$$

OHZ009>014-019>023-028>033-038-089-232300-
   NORTHEAST OHIO

CITY           SKY/WX    TMP DP  RH WIND       PRES   REMARKS
CLE-HOPKINS    CLOUDY    76  69  79 SW10      29.65S
CLE-LAKEFRONT  CLOUDY    74  70  87 W7        29.62S
CUY CO. ARPT   CLOUDY    75  70  83 NW7       29.64R
LORAIN-ELYRIA  FAIR      73  65  75 W15G21    29.65S
ASHTABULA      CLOUDY    75  70  84 W14       29.64R
AKRON-CANTON   CLOUDY    71  67  87 SW6       29.66F
WOOSTER        FAIR      72  69  90 W8        29.67F
MANSFIELD      LGT RAIN  70  68  93 SW12      29.69R
YOUNGSTOWN     CLOUDY    71  68  90 W8        29.66R
$$

OHZ042-051>053-060>062-070>072-077>081-232300-
  SOUTHWEST OHIO

CITY           SKY/WX    TMP DP  RH WIND       PRES   REMARKS
CINC-COVINGTON LGT RAIN  70  69  97 CALM      29.71S FOG
CINC-LUNKEN    RAIN      68  68 100 CALM      29.72F FOG
HAMILTON       LGT RAIN  69  69 100 CALM      29.72R
DAYTON         LGT RAIN  68  67  96 S3        29.70F
WRIGHT-PAT AFB NOT AVBL
DAYTON GENERAL LGT RAIN  68  66  93 CALM      29.70F
WILMINGTON     RAIN      67  67 100 S6        29.71S FOG
$$

OHZ036-037-039>041-045>050-054>059-063>069-073>076-082>088-232300-
  CENTRAL AND SOUTHEAST OHIO

CITY           SKY/WX    TMP DP  RH WIND       PRES   REMARKS
COLUMBUS       RAIN      70  69  97 SW7       29.69S
OSU AIRPORT    PTSUNNY   70  69  97 SW7       29.70R
BOLTON FIELD   NOT AVBL
RICKENBACK AFB NOT AVBL
NEWARK         LGT RAIN  70  67  90 SW6       29.70R FOG
MARION         LGT RAIN  69  66  90 SW9       29.70R
LANCASTER      RAIN      68  67  96 S6        29.71R FOG
ZANESVILLE     RAIN      70  67  90 SW5       29.69S FOG
NEW PHILLY     LGT RAIN  70  67  90 NW5       29.68R
$$




USA.gov is the U.S. government's official web portal to all federal, state and local government web resources and services.